Voltar ao catálogo

STARLINK-5051

AtivoComunicaçõesVLEO
NORAD 53916·PAYLOAD·🇺🇸 United States

Lançado Sep 24, 2022 de Cape Canaveral Space Force Station

Loading…

Próximas Passagens (próximas 24 horas)

TLE

AtualizadoSource: CelesTrak SupGP

Época: Sep 14, 2026, 21:11 UTC

1 53916C 22119AG  26257.88312500 -.00025083  00000+0 -80664-3 0  2571
2 53916  53.1580 150.0127 0001327  86.2264 137.5570 15.31713016    12

Acompanhe STARLINK-5051 em tempo real com AllMySat

Download on the App Store